When you browse on this site, cookies collect data to enhance your experience and personalize the content and advertising you see.
Visit our Privacy Policy to learn more. By continuing to use the site, you agree to this use of cookies and data.
  • In Switzerland
  • List of Countries
  • For 7 days
  • Water Temperature
  • Satellite Maps
  • Weather Map
  • Weather Widgets
  • user-avatar
    Login

    Hourly Weather Campo Grande

    Today, 24 January, Thursday

    Time Temperature Precipitation Wind Pressure Humidity
    00:00 +26°C° 0 mm 3 mps 710 mmHg 84%
    01:00 +26°C° 0 mm 2 mps 710 mmHg 83%
    02:00 +26°C° 0 mm 1 mps 710 mmHg 83%
    03:00 +26°C° 0 mm 1 mps 710 mmHg 83%
    04:00 +26°C° 0 mm 1 mps 709 mmHg 82%
    05:00 +26°C° 0 mm 1 mps 709 mmHg 82%
    06:00 +28°C° 0.4 mm 1 mps 710 mmHg 77%
    07:00 +29°C° 0.4 mm 2 mps 711 mmHg 71%
    08:00 +31°C° 0.4 mm 2 mps 711 mmHg 66%
    09:00 +32°C° 0.4 mm 2 mps 711 mmHg 60%
    10:00 +35°C° 0.4 mm 2 mps 711 mmHg 53%
    11:00 +36°C° 0.4 mm 2 mps 711 mmHg 47%
    12:00 +36°C° 0 mm 2 mps 711 mmHg 46%
    13:00 +37°C° 0 mm 3 mps 711 mmHg 45%
    14:00 +37°C° 0 mm 3 mps 710 mmHg 43%
    15:00 +36°C° 0 mm 3 mps 710 mmHg 47%
    16:00 +35°C° 0 mm 3 mps 709 mmHg 51%
    17:00 +35°C° 0 mm 3 mps 709 mmHg 55%
    18:00 +32°C° 0 mm 2 mps 709 mmHg 59%
    19:00 +31°C° 0 mm 2 mps 709 mmHg 63%
    20:00 +29°C° 0 mm 2 mps 709 mmHg 67%
    21:00 +29°C° 0.5 mm 2 mps 709 mmHg 72%
    22:00 +28°C° 0.5 mm 2 mps 709 mmHg 78%
    23:00 +27°C° 0.5 mm 2 mps 709 mmHg 83%

    Tomorrow, 25 January, Friday

    Time Temperature Precipitation Wind Pressure Humidity
    00:00 +27°C° 0 mm 3 mps 709 mmHg 84%
    01:00 +27°C° 0 mm 3 mps 709 mmHg 85%
    02:00 +26°C° 0 mm 3 mps 708 mmHg 86%
    03:00 +26°C° 0 mm 3 mps 708 mmHg 87%
    04:00 +26°C° 0 mm 2 mps 708 mmHg 87%
    05:00 +26°C° 0 mm 2 mps 708 mmHg 87%
    06:00 +27°C° 1 mm 2 mps 709 mmHg 82%
    07:00 +28°C° 1 mm 3 mps 709 mmHg 78%
    08:00 +30°C° 1 mm 3 mps 710 mmHg 73%
    09:00 +30°C° 2.1 mm 3 mps 710 mmHg 68%
    10:00 +31°C° 2.1 mm 3 mps 710 mmHg 64%
    11:00 +33°C° 2.1 mm 3 mps 710 mmHg 59%
    12:00 +34°C° 0 mm 2 mps 710 mmHg 56%
    13:00 +34°C° 0 mm 2 mps 709 mmHg 53%
    14:00 +35°C° 0 mm 2 mps 709 mmHg 51%
    15:00 +34°C° 0 mm 1 mps 708 mmHg 51%
    16:00 +34°C° 0 mm 1 mps 708 mmHg 52%
    17:00 +32°C° 0 mm 0 mps 708 mmHg 53%
    18:00 +33°C° 0 mm 1 mps 708 mmHg 55%
    19:00 +31°C° 0 mm 2 mps 708 mmHg 57%
    20:00 +29°C° 0 mm 2 mps 708 mmHg 59%
    21:00 +29°C° 0 mm 2 mps 708 mmHg 61%
    22:00 +29°C° 0 mm 2 mps 709 mmHg 62%
    23:00 +28°C° 0 mm 2 mps 709 mmHg 64%

    Day after tomorrow, 26 January, Saturday

    Time Temperature Precipitation Wind Pressure Humidity
    00:00 +28°C° 0.5 mm 2 mps 709 mmHg 68%
    01:00 +27°C° 0.5 mm 2 mps 708 mmHg 72%
    02:00 +27°C° 0.5 mm 2 mps 708 mmHg 75%
    03:00 +26°C° 0.1 mm 2 mps 708 mmHg 77%
    04:00 +26°C° 0.1 mm 2 mps 708 mmHg 79%
    05:00 +26°C° 0.1 mm 2 mps 708 mmHg 81%
    06:00 +27°C° 0.5 mm 2 mps 709 mmHg 77%
    07:00 +28°C° 0.5 mm 3 mps 709 mmHg 73%
    08:00 +30°C° 0.5 mm 3 mps 710 mmHg 69%
    09:00 +31°C° 1 mm 3 mps 710 mmHg 64%
    10:00 +33°C° 1 mm 3 mps 710 mmHg 58%
    11:00 +35°C° 1 mm 3 mps 710 mmHg 52%
    12:00 +34°C° 0.1 mm 2 mps 710 mmHg 53%
    13:00 +34°C° 0.1 mm 2 mps 709 mmHg 54%
    14:00 +33°C° 0.1 mm 1 mps 709 mmHg 55%
    15:00 +32°C° 0.1 mm 2 mps 708 mmHg 59%
    16:00 +31°C° 0.1 mm 2 mps 708 mmHg 63%
    17:00 +30°C° 0.1 mm 3 mps 708 mmHg 68%
    18:00 +29°C° 1.7 mm 2 mps 708 mmHg 73%
    19:00 +27°C° 1.7 mm 2 mps 708 mmHg 78%
    20:00 +26°C° 1.7 mm 2 mps 708 mmHg 83%
    21:00 +26°C° 0.8 mm 2 mps 709 mmHg 83%
    22:00 +26°C° 0.8 mm 2 mps 709 mmHg 83%
    23:00 +26°C° 0.8 mm 2 mps 709 mmHg 82%

    27 January, Sunday

    Time Temperature Precipitation Wind Pressure Humidity
    00:00 +26°C° 0.3 mm 3 mps 709 mmHg 83%
    01:00 +26°C° 0.3 mm 3 mps 708 mmHg 83%
    02:00 +26°C° 0.3 mm 3 mps 708 mmHg 84%
    03:00 +26°C° 0 mm 3 mps 708 mmHg 84%
    04:00 +25°C° 0 mm 3 mps 708 mmHg 85%
    05:00 +25°C° 0 mm 3 mps 708 mmHg 85%
    06:00 +26°C° 0 mm 3 mps 709 mmHg 81%
    07:00 +27°C° 0 mm 4 mps 709 mmHg 78%
    08:00 +28°C° 0 mm 4 mps 710 mmHg 74%
    09:00 +29°C° 1.2 mm 4 mps 710 mmHg 68%
    10:00 +31°C° 1.2 mm 3 mps 710 mmHg 62%
    11:00 +33°C° 1.2 mm 3 mps 710 mmHg 55%
    12:00 +32°C° 0.1 mm 2 mps 709 mmHg 56%
    13:00 +32°C° 0.1 mm 2 mps 709 mmHg 57%
    14:00 +31°C° 0.1 mm 1 mps 708 mmHg 58%
    15:00 +31°C° 0.1 mm 1 mps 708 mmHg 61%
    16:00 +30°C° 0.1 mm 1 mps 708 mmHg 65%
    17:00 +30°C° 0.1 mm 2 mps 707 mmHg 68%
    18:00 +29°C° 0 mm 3 mps 708 mmHg 68%
    19:00 +28°C° 0 mm 4 mps 708 mmHg 69%
    20:00 +27°C° 0 mm 5 mps 709 mmHg 69%
    21:00 +26°C° 0.4 mm 5 mps 709 mmHg 73%
    22:00 +26°C° 0.4 mm 5 mps 709 mmHg 76%
    23:00 +24°C° 0.4 mm 6 mps 710 mmHg 79%

    28 January, Monday

    Time Temperature Precipitation Wind Pressure Humidity
    00:00 +23°C° 0 mm 5 mps 709 mmHg 82%
    01:00 +23°C° 0 mm 4 mps 709 mmHg 84%
    02:00 +22°C° 0 mm 3 mps 708 mmHg 86%
    03:00 +22°C° 0 mm 3 mps 708 mmHg 86%
    04:00 +22°C° 0 mm 4 mps 709 mmHg 87%
    05:00 +21°C° 0 mm 4 mps 709 mmHg 87%
    06:00 +23°C° 0 mm 5 mps 710 mmHg 82%
    07:00 +25°C° 0 mm 5 mps 711 mmHg 78%
    08:00 +26°C° 0 mm 6 mps 711 mmHg 73%
    09:00 +27°C° 0.8 mm 6 mps 711 mmHg 71%
    10:00 +28°C° 0.8 mm 5 mps 711 mmHg 69%
    11:00 +29°C° 0.8 mm 5 mps 711 mmHg 67%
    12:00 +29°C° 1.3 mm 5 mps 711 mmHg 69%
    13:00 +29°C° 1.3 mm 5 mps 710 mmHg 71%
    14:00 +28°C° 1.3 mm 4 mps 710 mmHg 73%
    15:00 +29°C° 0.7 mm 4 mps 710 mmHg 73%
    16:00 +29°C° 0.7 mm 3 mps 710 mmHg 72%
    17:00 +29°C° 0.7 mm 3 mps 710 mmHg 72%
    18:00 +27°C° 0.1 mm 3 mps 710 mmHg 74%
    19:00 +26°C° 0.1 mm 3 mps 711 mmHg 77%
    20:00 +25°C° 0.1 mm 3 mps 711 mmHg 80%
    21:00 +25°C° 0 mm 3 mps 711 mmHg 81%
    22:00 +24°C° 0 mm 2 mps 711 mmHg 81%
    23:00 +24°C° 0 mm 2 mps 712 mmHg 81%

    29 January, Tuesday

    Time Temperature Precipitation Wind Pressure Humidity
    00:00 +24°C° 0 mm 2 mps 711 mmHg 82%
    01:00 +23°C° 0 mm 2 mps 711 mmHg 82%
    02:00 +23°C° 0 mm 2 mps 711 mmHg 83%
    03:00 +23°C° 0 mm 2 mps 711 mmHg 84%
    04:00 +23°C° 0 mm 2 mps 711 mmHg 84%
    05:00 +23°C° 0 mm 2 mps 711 mmHg 85%
    06:00 +25°C° 0 mm 2 mps 712 mmHg 78%
    07:00 +26°C° 0 mm 3 mps 712 mmHg 71%
    08:00 +28°C° 0 mm 3 mps 713 mmHg 65%
    09:00 +30°C° 0 mm 3 mps 713 mmHg 59%
    10:00 +32°C° 0 mm 4 mps 713 mmHg 54%
    11:00 +34°C° 0 mm 4 mps 713 mmHg 49%
    12:00 +33°C° 0 mm 4 mps 712 mmHg 51%
    13:00 +33°C° 0 mm 3 mps 711 mmHg 53%
    14:00 +32°C° 0 mm 2 mps 710 mmHg 54%
    15:00 +31°C° 0 mm 2 mps 710 mmHg 56%
    16:00 +31°C° 0 mm 2 mps 710 mmHg 59%
    17:00 +30°C° 0 mm 1 mps 709 mmHg 61%
    18:00 +30°C° 0 mm 1 mps 710 mmHg 61%
    19:00 +29°C° 0 mm 1 mps 710 mmHg 62%
    20:00 +28°C° 0 mm 1 mps 710 mmHg 63%
    21:00 +28°C° 0 mm 1 mps 710 mmHg 64%
    22:00 +27°C° 0 mm 1 mps 710 mmHg 66%
    23:00 +26°C° 0 mm 1 mps 711 mmHg 67%
    Show more